EW0771 Weather Reports


Display with metric or nautical units.
time (UTC)temp
F
wind
direction
speed
MPH
gust
MPH
rain 1hr
in
rain 24hr
in
rain mn
in
humidity
%
barometer
mb
20190117140054 29 322 1.0 5.0 0.00 0.05 0.00 68 1027.1
20190117134622 29 5 1.0 6.0 0.00 0.05 0.00 70 1027.1
20190117133034 29 12 0.0 4.0 0.00 0.05 0.00 69 1026.9
20190117131601 29 26 1.0 7.0 0.00 0.05 0.00 70 1027.0
20190117130036 28 22 0.0 4.0 0.00 0.05 0.00 72 1026.5
20190117124534 28 27 0.0 3.0 0.00 0.05 0.00 74 1026.4
20190117123106 27 32 0.0 6.0 0.00 0.05 0.00 78 1026.3
20190117121534 25 359 0.0 0.0 0.00 0.05 0.00 83 1026.4
20190117120105 26 359 0.0 0.0 0.00 0.05 0.00 83 1026.0
20190117114552 26 359 0.0 0.0 0.00 0.05 0.00 83 1025.8
20190117113047 26 359 0.0 0.0 0.00 0.05 0.00 83 1025.7
20190117111549 27 358 0.0 0.0 0.00 0.05 0.00 82 1025.6
20190117110022 27 359 0.0 0.0 0.00 0.05 0.00 81 1025.3
20190117104528 27 359 0.0 0.0 0.00 0.05 0.00 82 1025.1
20190117103044 28 359 0.0 0.0 0.00 0.05 0.00 84 1025.2
20190117101518 28 359 0.0 0.0 0.00 0.05 0.00 84 1025.1
20190117100024 28 359 0.0 0.0 0.00 0.05 0.00 81 1025.0
20190117094503 29 359 0.0 1.0 0.00 0.05 0.00 80 1024.9
20190117093152 29 356 0.0 0.0 0.00 0.05 0.00 78 1024.8
20190117091754 30 356 0.0 0.0 0.00 0.05 0.00 77 1024.6
20190117090134 31 356 0.0 0.0 0.00 0.05 0.00 73 1024.6
20190117084659 32 356 0.0 0.0 0.00 0.05 0.00 72 1024.5
20190117083145 33 357 0.0 4.0 0.00 0.05 0.00 68 1024.4
20190117081622 34 359 1.0 6.0 0.00 0.05 0.00 69 1024.3
20190117080102 34 324 4.0 7.0 0.00 0.05 0.00 71 1024.3
20190117074559 33 22 1.0 3.0 0.00 0.05 0.00 78 1024.3
20190117073056 33 101 0.0 0.0 0.00 0.05 0.00 78 1024.1
20190117071545 33 120 0.0 0.0 0.00 0.05 0.00 77 1024.0
20190117070106 33 120 0.0 0.0 0.00 0.05 0.00 77 1023.7
20190117064601 33 120 0.0 0.0 0.00 0.05 0.00 77 1023.5
20190117063048 33 120 0.0 0.0 0.00 0.05 0.00 78 1023.4
20190117061552 33 120 0.0 0.0 0.00 0.05 0.00 76 1023.4
20190117060116 33 120 0.0 0.0 0.00 0.05 0.00 76 1023.2
20190117054602 33 120 0.0 0.0 0.00 0.05 0.00 77 1023.2
20190117053030 34 120 0.0 0.0 0.00 0.05 0.00 76 1023.1
20190117051606 33 120 0.0 0.0 0.00 0.05 0.00 76 1023.1
20190117050048 33 120 0.0 0.0 0.00 0.05 0.00 76 1023.0
20190117044548 33 120 0.0 0.0 0.00 0.05 0.05 76 1023.1
20190117043111 33 120 0.0 0.0 0.00 0.05 0.05 76 1023.2
20190117041559 33 120 0.0 0.0 0.00 0.05 0.05 76 1023.1
20190117040041 33 120 0.0 0.0 0.00 0.05 0.05 75 1022.9
20190117034528 34 120 0.0 0.0 0.00 0.05 0.05 74 1022.7
20190117033024 34 120 0.0 0.0 0.00 0.05 0.05 73 1022.5
20190117031531 34 120 0.0 0.0 0.00 0.05 0.05 73 1022.3
20190117030019 35 120 0.0 0.0 0.00 0.05 0.05 72 1022.1
20190117024522 35 120 0.0 0.0 0.00 0.05 0.05 71 1022.0
20190117023012 35 120 0.0 0.0 0.00 0.05 0.05 71 1021.9
20190117020007 35 99 0.0 2.0 0.00 0.05 0.05 73 1021.8
20190117014504 35 70 1.0 7.0 0.00 0.05 0.05 72 1021.7
20190117013014 35 133 0.0 3.0 0.00 0.05 0.05 72 1021.7
20190117011628 36 281 0.0 1.0 0.00 0.05 0.05 71 1021.5
20190117010202 36 314 1.0 9.0 0.00 0.05 0.05 68 1021.4
20190117004646 36 354 0.0 3.0 0.00 0.05 0.05 71 1021.4
20190117003208 36 351 1.0 3.0 0.00 0.05 0.05 72 1021.3
20190117001632 36 338 1.0 6.0 0.00 0.05 0.05 72 1021.2
20190117000130 36 12 0.0 4.0 0.00 0.05 0.05 74 1021.1
20190116234636 36 32 0.0 2.0 0.00 0.05 0.05 76 1020.8
20190116233134 36 16 0.0 0.0 0.00 0.05 0.05 74 1020.5
20190116231641 36 23 0.0 4.0 0.00 0.05 0.05 74 1020.3
20190116230309 36 4 0.0 6.0 0.00 0.05 0.05 75 1020.0
20190116224652 36 4 0.0 3.0 0.00 0.05 0.05 76 1019.9
20190116223124 36 96 0.0 0.0 0.00 0.05 0.05 75 1019.7
20190116221639 36 98 0.0 0.0 0.00 0.05 0.05 74 1019.4
20190116220128 36 98 0.0 0.0 0.00 0.05 0.05 73 1019.2
20190116214555 37 26 0.0 0.0 0.01 0.05 0.05 73 1019.0
20190116213113 37 33 0.0 0.0 0.01 0.05 0.05 72 1018.8
20190116211558 37 29 0.0 2.0 0.01 0.05 0.05 73 1018.6
20190116210052 37 22 0.0 4.0 0.01 0.05 0.05 74 1018.5
20190116204547 38 188 0.0 2.0 0.00 0.04 0.04 74 1018.5
20190116203045 38 145 0.0 0.0 0.00 0.04 0.04 74 1018.3
20190116201627 38 6 0.0 0.0 0.00 0.04 0.04 73 1018.1
20190116200146 38 126 0.0 0.0 0.00 0.04 0.04 73 1017.9
20190116194541 38 19 0.0 2.0 0.00 0.06 0.04 72 1017.9
20190116193045 39 131 0.0 1.0 0.01 0.06 0.04 70 1017.8
20190116191538 39 136 0.0 1.0 0.02 0.06 0.04 71 1017.5
20190116190212 39 163 0.0 2.0 0.03 0.06 0.04 70 1017.5
20190116184553 39 146 0.0 0.0 0.02 0.06 0.03 70 1017.5
20190116183105 39 155 0.0 0.0 0.03 0.06 0.03 71 1017.5
20190116181544 39 162 0.0 0.0 0.02 0.05 0.02 72 1017.5
20190116180023 39 112 0.0 0.0 0.01 0.04 0.01 71 1017.5
20190116174547 38 151 0.0 0.0 0.01 0.05 0.01 72 1017.7
20190116173030 38 354 0.0 1.0 0.00 0.04 0.00 73 1017.9
20190116171522 37 342 0.0 0.0 0.00 0.04 0.00 77 1018.1
20190116170020 37 168 0.0 0.0 0.00 0.04 0.00 78 1018.3
20190116164541 36 93 0.0 0.0 0.00 0.07 0.00 80 1018.5
20190116163005 35 93 0.0 0.0 0.00 0.07 0.00 82 1018.8
20190116161626 34 94 0.0 0.0 0.00 0.07 0.00 84 1019.0
20190116160145 33 93 0.0 1.0 0.00 0.07 0.00 87 1019.0
20190116154716 32 92 0.0 0.0 0.00 0.07 0.00 90 1019.1
20190116153300 31 91 0.0 0.0 0.00 0.07 0.00 90 1019.2
20190116151556 30 91 0.0 0.0 0.00 0.07 0.00 91 1019.1
20190116150110 29 91 0.0 0.0 0.00 0.07 0.00 91 1018.9
20190116144608 28 91 0.0 0.0 0.00 0.07 0.00 92 1018.7
20190116143106 27 91 0.0 0.0 0.00 0.07 0.00 92 1018.5
20190116141612 25 91 0.0 0.0 0.00 0.07 0.00 92 1018.4